Location: Gamarra
(10.0780°N, 67.4929°W)
Time: 08:22:09
(UTC+00:00)

CZ-4B R/B - Pass Details

Date: 13 April 2024
Orbit: 701 x 800 km, 99.0° (Epoch: 22 May)

Event Time Altitude Azimuth Distance (km) Brightness Sun altitude
Rises 23:28:58 0° 168° (SSE) 3,258 6.5 -12.5°
Reaches altitude 10° 23:31:18 10° 169° (S) 2,317 5.8 -13.1°
Maximum altitude 23:36:25 84° 257° (WSW) 767 3.5 -14.3°
Drops below altitude 10° 23:41:23 10° 345° (NNW) 2,253 6.3 -15.5°
Sets 23:43:38 0° 346° (NNW) 3,160 7.1 -16.1°
